GW0883 Weather Reports


time (UTC)temp
C
wind
direction
speed
KPH
gust
KPH
rain 1hr
cm
rain 24hr
cm
rain mn
cm
humidity
%
barometer
mb
20260507155416 14 258 8.0 12.9 0.00 0.41 0.08 69 1010.2
20260507154516 14 258 8.0 17.7 0.00 0.41 0.08 69 1010.2
20260507153417 14 191 1.6 4.8 0.00 0.41 0.08 70 1010.2
20260507150415 13 214 8.0 11.3 0.00 0.41 0.08 73 1010.6
20260507145514 14 297 4.8 6.4 0.00 0.41 0.08 74 1010.6
20260507144517 14 146 1.6 6.4 0.00 0.41 0.08 75 1010.7
20260507143515 13 240 3.2 9.7 0.00 0.41 0.08 76 1010.8
20260507142516 13 34 3.2 9.7 0.00 0.41 0.08 77 1010.8
20260507141516 13 273 3.2 6.4 0.00 0.41 0.08 77 1010.8
20260507140515 13 201 1.6 3.2 0.00 0.41 0.08 78 1010.9
20260507135516 13 244 8.0 11.3 0.00 0.41 0.08 79 1010.9
20260507134516 13 28 3.2 11.3 0.00 0.41 0.08 79 1010.6
20260507133515 13 240 3.2 6.4 0.00 0.41 0.08 80 1010.6
20260507132515 12 132 1.6 8.0 0.00 0.41 0.08 81 1010.8
20260507131517 12 325 1.6 4.8 0.00 0.41 0.08 81 1010.8
20260507130615 12 204 8.0 11.3 0.00 0.41 0.08 82 1010.8
20260507125714 12 229 1.6 6.4 0.00 0.41 0.08 82 1010.9
20260507124716 12 211 3.2 8.0 0.00 0.41 0.08 83 1011.0
20260507123814 11 4 1.6 8.0 0.00 0.41 0.08 83 1011.0
20260507122815 11 286 6.4 11.3 0.00 0.41 0.08 84 1010.9
20260507121817 11 266 3.2 9.7 0.00 0.41 0.08 84 1010.9
20260507120816 10 239 0.0 4.8 0.00 0.41 0.08 83 1011.1
20260507115817 10 253 6.4 9.7 0.00 0.41 0.08 84 1010.9
20260507114817 10 333 1.6 4.8 0.00 0.41 0.08 83 1010.9
20260507112915 9 225 1.6 4.8 0.00 0.41 0.08 84 1010.6
20260507111918 8 229 1.6 4.8 0.00 0.41 0.08 83 1010.8
20260507110915 8 223 1.6 3.2 0.00 0.41 0.08 83 1010.7
20260507105915 8 204 0.0 1.6 0.00 0.41 0.08 84 1010.6
20260507104916 8 202 0.0 1.6 0.00 0.41 0.08 84 1010.7
20260507102916 8 238 0.0 1.6 0.00 0.41 0.08 84 1010.4
20260507102015 8 223 1.6 4.8 0.03 0.41 0.08 84 1010.1
20260507101014 8 225 0.0 0.0 0.03 0.41 0.08 83 1009.9
20260507100019 8 67 0.0 0.0 0.03 0.41 0.08 83 1009.7
20260507095016 8 225 0.0 1.6 0.03 0.41 0.08 83 1010.0
20260507094015 8 67 0.0 0.0 0.03 0.41 0.08 83 1009.6
20260507093016 8 202 0.0 0.0 0.05 0.41 0.08 82 1010.2
20260507092016 8 202 0.0 0.0 0.03 0.38 0.05 82 1010.0
20260507091017 8 315 0.0 0.0 0.03 0.38 0.05 83 1010.1
20260507090015 8 225 0.0 0.0 0.03 0.38 0.05 83 1010.3
20260507085017 8 245 3.2 6.4 0.03 0.38 0.05 82 1010.6
20260507084016 8 270 0.0 0.0 0.03 0.38 0.05 82 1010.5
20260507083017 8 270 0.0 1.6 0.00 0.36 0.03 82 1010.1
20260507082016 8 209 1.6 3.2 0.03 0.36 0.03 82 1010.1
20260507081016 8 225 0.0 3.2 0.03 0.36 0.03 82 1010.0
20260507080017 8 247 1.6 3.2 0.03 0.36 0.03 83 1010.0
20260507075016 9 202 0.0 0.0 0.03 0.36 0.03 83 1010.0
20260507074017 9 310 0.0 1.6 0.03 0.36 0.03 82 1010.2
20260507073114 10 247 0.0 0.0 0.03 0.36 0.03 82 1010.1
20260507072116 10 276 0.0 1.6 0.00 0.33 0.00 83 1010.2
20260507071117 10 225 0.0 1.6 0.00 0.33 0.00 83 1009.6
20260507063216 10 225 0.0 0.0 0.00 0.33 0.00 84 1009.3
20260507062216 10 214 0.0 1.6 0.00 0.33 0.00 85 1009.5
20260507061216 11 277 1.6 3.2 0.00 0.33 0.00 85 1009.7
20260507060217 11 133 0.0 1.6 0.00 0.33 0.00 85 1009.6
20260507055315 11 315 0.0 1.6 0.00 0.33 0.00 84 1009.5
20260507054315 11 176 3.2 4.8 0.00 0.33 0.00 85 1009.6
20260507053316 11 8 1.6 4.8 0.00 0.33 0.00 85 1009.7
20260507052319 12 226 0.0 0.0 0.00 0.33 0.00 86 1009.7
20260507051316 12 225 0.0 0.0 0.00 0.33 0.00 85 1009.8
20260507050314 12 225 0.0 3.2 0.00 0.33 0.00 86 1009.8
20260507050216 12 225 0.0 1.6 0.00 0.33 0.00 85 1009.8
20260507045215 12 225 0.0 1.6 0.03 0.33 0.00 86 1009.7
20260507044217 12 216 3.2 4.8 0.03 0.33 0.00 85 1009.9
20260507043217 12 247 0.0 3.2 0.03 0.33 0.00 86 1009.7
20260507042216 13 300 0.0 3.2 0.03 0.33 0.00 86 1009.5
20260507041215 13 202 0.0 0.0 0.03 0.33 0.00 85 1009.6
20260507040217 13 208 4.8 4.8 0.03 0.33 0.00 86 1009.7
20260507035221 13 188 1.6 3.2 0.00 0.30 0.30 85 1009.6
20260507034221 14 178 0.0 3.2 0.00 0.30 0.30 86 1009.6
20260507032320 14 360 0.0 0.0 0.00 0.30 0.30 86 1009.3
20260507031320 14 225 0.0 0.0 0.00 0.30 0.30 85 1008.9
20260507030321 15 250 4.8 9.7 0.00 0.30 0.30 85 1008.9
20260507025320 15 256 4.8 11.3 0.00 0.30 0.30 84 1008.9
20260507024320 15 256 1.6 3.2 0.00 0.30 0.30 85 1008.6
20260507023320 15 270 0.0 0.0 0.00 0.30 0.30 84 1008.6
20260507022321 15 203 0.0 1.6 0.00 0.30 0.30 84 1008.7
20260507021322 15 248 3.2 4.8 0.00 0.30 0.30 84 1008.7
20260507020418 15 225 1.6 4.8 0.00 0.30 0.30 83 1008.5
20260507015321 15 224 4.8 9.7 0.00 0.30 0.30 84 1008.5
20260507014419 14 225 3.2 8.0 0.00 0.30 0.30 83 1008.7
20260507011420 15 199 1.6 8.0 0.00 0.30 0.30 83 1008.5
20260507010422 15 211 3.2 6.4 0.00 0.30 0.30 81 1008.7
20260507005422 14 224 6.4 11.3 0.00 0.30 0.30 81 1008.7
20260507004420 14 220 6.4 11.3 0.00 0.30 0.30 82 1008.8
20260507003422 14 223 1.6 8.0 0.00 0.30 0.30 81 1008.6
20260507002421 14 222 3.2 4.8 0.00 0.30 0.30 81 1008.7
20260507001519 14 260 0.0 3.2 0.00 0.30 0.30 80 1008.6
20260507000520 14 214 3.2 6.4 0.00 0.30 0.30 80 1008.6
20260506235522 14 206 1.6 6.4 0.03 0.30 0.30 79 1008.3
20260506234620 14 225 1.6 4.8 0.05 0.30 0.30 78 1008.4
20260506233621 14 213 4.8 9.7 0.08 0.30 0.30 78 1008.3
20260506232621 14 205 1.6 4.8 0.08 0.30 0.30 78 1008.4
20260506231719 14 217 4.8 8.0 0.08 0.30 0.30 77 1008.3
20260506230719 14 222 1.6 3.2 0.08 0.30 0.30 77 1008.2
20260506225721 15 217 4.8 9.7 0.05 0.28 0.28 77 1008.3
20260506224721 15 215 8.0 16.1 0.05 0.25 0.25 75 1008.4
20260506223720 15 214 3.2 4.8 0.03 0.23 0.23 75 1008.5
20260506222722 15 202 1.6 4.8 0.03 0.23 0.23 74 1008.6
20260506221722 15 225 4.8 9.7 0.03 0.23 0.23 74 1008.5
20260506220820 15 217 3.2 6.4 0.03 0.23 0.23 74 1008.6
20260506214837 15 208 1.6 4.8 0.00 0.20 0.20 71 1008.8
20260506213921 15 219 6.4 11.3 0.00 0.20 0.20 71 1008.8
20260506212922 15 213 1.6 6.4 0.00 0.20 0.20 70 1009.0
20260506211922 15 223 4.8 9.7 0.03 0.20 0.20 70 1009.1
20260506211020 15 222 4.8 11.3 0.05 0.20 0.20 70 1009.0
20260506210021 15 199 3.2 4.8 0.05 0.20 0.20 69 1009.2
20260506204120 15 218 3.2 6.4 0.08 0.20 0.20 67 1009.3
20260506202123 15 222 9.7 16.1 0.08 0.18 0.18 65 1009.5
20260506201120 15 223 3.2 9.7 0.10 0.18 0.15 64 1009.5
20260506200120 15 214 3.2 8.0 0.10 0.15 0.15 64 1009.4
20260506195120 16 222 1.6 4.8 0.13 0.15 0.15 64 1009.5
20260506194219 16 211 1.6 6.4 0.10 0.13 0.13 62 1009.4
20260506193222 16 205 4.8 6.4 0.13 0.13 0.13 61 1009.4
20260506191321 16 223 6.4 12.9 0.08 0.08 0.08 61 1009.5
20260506190320 16 209 3.2 4.8 0.05 0.05 0.05 60 1009.4
20260506185419 17 210 3.2 9.7 0.05 0.05 0.03 59 1009.4
20260506184421 17 217 3.2 8.0 0.03 0.03 0.03 59 1009.5
20260506183421 18 225 4.8 8.0 0.00 0.00 0.00 59 1009.7
20260506181420 19 209 6.4 11.3 0.00 0.00 0.00 58 1009.6
20260506180519 20 220 6.4 14.5 0.00 0.00 0.00 58 1009.7
20260506175522 21 218 11.3 16.1 0.00 0.00 0.00 59 1009.8
20260506172622 22 226 8.0 16.1 0.00 0.00 0.00 61 1009.6
20260506171620 22 214 3.2 8.0 0.00 0.00 0.00 60 1009.6
20260506170619 22 230 4.8 9.7 0.00 0.00 0.00 62 1009.6
20260506165622 22 224 6.4 11.3 0.00 0.00 0.00 61 1009.8
20260506164619 22 208 8.0 16.1 0.00 0.00 0.00 62 1009.8
20260506163621 21 203 1.6 3.2 0.00 0.00 0.00 63 1009.9
20260506162621 21 227 4.8 6.4 0.00 0.00 0.00 64 1010.2